Location: Burla
(50.9568°N, 10.4983°E)
Time: 15:10:06
(UTC+00:00)

Meteor 2-10 Rocket - Pass Details

Date: 18 January 2026
Orbit: 733 x 881 km, 81.2° (Epoch: 10 February)

Event Time Altitude Azimuth Distance (km) Brightness Sun altitude
Rises 05:53:39 0° 227° (SW) 3,200 6.4 -12.0°
Reaches altitude 10° 05:56:18 10° 239° (WSW) 2,299 5.6 -11.6°
Maximum altitude 06:00:39 27° 297° (WNW) 1,478 4.4 -10.9°
Drops below altitude 10° 06:05:11 10° 355° (N) 2,391 5.8 -10.3°
Sets 06:08:00 0° 7° (N) 3,354 6.7 -9.8°
